Find Starlink 4648

NORAD ID: 53602 Int'l Des: 2022-104 Owner: SPXS Country: US Constellation: starlink operational
LEOCIRCULAR

リアルタイム位置

3D地球を読み込み中...

Starlink 4648について

説明を読み込み中...

次回通過

Passes for default location (London). Set your location on the main map for personalized predictions.

高度履歴

Loading altitude history...

軌道要素

1 53602U 22104Q 26129.81378819 .00000087 00000-0 23552-4 0 9996
2 53602 53.2190 324.6631 0001353 92.7684 267.3463 15.08838600204917
Epoch: May 9, 2026 • Age: 19 hours

現在のステータス

高度 545.3 km
速度 7.60 km/s
衛星直下点 52.99°N, 33.38°W
打ち上げ日 Aug 28, 2022
運用期間 3.6 years
タイプ internet

技術仕様

分類 Payload
質量 300.00 kg
乾燥質量 290.00 kg
総質量 300.00 kg
長さ 0.20 m
直径 2.80 m
スパン 9.00 m
形状 Box + pan
製造者 SPXS
バスタイプ Starlink
フェーズステータス In Orbit
所有者/国 SPXS/US

Most Searched